Home   Weather   Kunming   Past weeks
Flag for China

Past Weather in Kunming, Yunnan, China — Yesterday and Last 2 Weeks

Now
63 °F

Scattered clouds.


Feels Like: 63 °F
Forecast: 71 / 55 °F
Wind: 10 mph from Southwest

Location: Kunming Airport

Current Time: Oct 20, 2019 at 11:26:57 am

Latest Report: Oct 20, 2019 at 10:00 am


Visibility: N/A

Pressure: 30.36 "Hg (24.25 "Hg at 1909m altitude)

Humidity: 77%

Dew Point: 55 °F

Location of KunmingLocation

Past Weather in Kunming — Graph

°F

Kunming Temperature Yesterday

Maximum temperature yesterday: 72 °F (at 3:00 pm)
Minimum temperature yesterday: 54 °F (at 12:00 am)
Average temperature yesterday: 60 °F

High & Low Weather Summary for the Past Weeks

 TemperatureHumidityPressure
High72 °F (Oct 7, 4:00 pm)100% (Oct 5, 10:00 am)30.45 "Hg (Oct 5, 10:00 am)
Low50 °F (Oct 18, 1:00 am)41% (Oct 19, 3:00 pm)30.12 "Hg (Oct 9, 5:00 pm)
Average60 °F84%30.30 "Hg
* Reported Oct 5 10:00 am — Oct 20 10:00 am, Kunming. Weather by CustomWeather, © 2019

Note: Actual official high and low records may vary slightly from our data, if they occured in-between our weather recording intervals... More about our weather records

Advertising

Kunming Weather History for the Previous 24 Hours

Scroll right to see more
 ConditionsComfort  
Time TempWeatherWind HumidityBarometerVisibility
10:00 am
Sun, Oct 20
63 °FScattered clouds.10 mph77%30.36 "HgN/A
9:00 am59 °FBroken clouds.10 mph88%30.33 "Hg4 mi
8:00 am57 °FFog.6 mph94%30.33 "Hg3 mi
7:00 am55 °FPartly cloudy.6 mph94%30.30 "HgN/A
6:00 am55 °FPartly cloudy.6 mph94%30.27 "HgN/A
5:00 am52 °FPassing clouds.3 mph100%30.27 "HgN/A
4:00 am54 °FPassing clouds.3 mph94%30.27 "HgN/A
3:00 am54 °FClear.8 mph94%30.27 "Hg10 mi
2:00 am54 °FClear.8 mph94%30.27 "Hg10 mi
1:00 am54 °FClear.6 mph88%30.30 "Hg10 mi
12:00 am54 °FClear.8 mph88%30.30 "Hg10 mi
11:00 pm
Sat, Oct 19
55 °FClear.8 mph82%30.30 "Hg10 mi
10:00 pm59 °FClear.8 mph72%30.27 "Hg10 mi
9:00 pm59 °FClear.8 mph72%30.27 "Hg10 mi
8:00 pm57 °FPassing clouds.8 mph77%30.24 "HgN/A
7:00 pm61 °FPassing clouds.6 mph72%30.24 "HgN/A
6:00 pm66 °FScattered clouds.10 mph56%30.24 "HgN/A
5:00 pm70 °FScattered clouds.15 mph43%30.24 "HgN/A
4:00 pm70 °FScattered clouds.17 mph43%30.24 "HgN/A
3:00 pm72 °FScattered clouds.15 mph41%30.24 "HgN/A
2:00 pm66 °FPartly sunny.13 mph52%30.30 "HgN/A
1:00 pm64 °FPartly sunny.10 mph64%30.33 "HgN/A
12:00 pm66 °FScattered clouds.13 mph64%30.36 "HgN/A
11:00 am63 °FBroken clouds.13 mph77%30.39 "HgN/A
Weather by CustomWeather, © 2019

See weather overview